Погода в Мичуринске

Погода в Мичуринске : погода сейчас, прогноз погоды и архив. Всё, что Вы хотите узнать о погоде в Мичуринске!

Хотите узнать прогноз погоды в Мичуринске? Тогда Вам сюда: Погода в Мичуринске

Поиск расширенной информации на нашем сайте:

Другие новости

Новости СМИ2

Главная страница сайта

Новости сайта

02.10.2013

Напоминаем, что на нашем новом сайте вы можете получить высокодетализированные прогнозы погоды по пунктам России, СНГ и мира (включающие важные для авиации метеовеличины, такие как направление и скорость ветра, видимость, явления погоды, количество и форма облачности, нижняя и верхняя граница облачности), а также ознакомиться с разнообразными материалами по авиационной метеорологии и подборкой полезных ссылок на эту тему.

Сайт Метеоцентр.Азия посвящён разработке технологий оптимизации авиаметеорологического обслуживания, включая проектирование и перспективное создание нескольких автоматизированных авиаметеорологических систем:
- система выпуска высокодетальных прогностических карт явлений погоды для нижнего воздушного пространства по России и ближнему зарубежью;
- система верификации прогнозов TAF (выпускаемых синоптиками официальных АМСГ РФ и ближнего зарубежья) и AUTOTAF (выпускаемых сайтом Метеоцентр.Азия) - выявление ошибок, онлайн-сопоставление с фактической погодой METAR, автоматическое внесение коррективов в прогнозы при резком отклонении фактической погоды от прогноза, подсчёт оправдываемости прогнозов по элементам и в целом;
- система обработки, анализа и отображения авиаметеорологической информации для применения провайдерами метеорологической информации.


Погода в Мичуринске - сегодня

Время (UTC), дата Ветер
(°,м/с) 
Видим.   Явления Облачность Т
(°С)
Тd
(°С)
f(%) Тe
(°С)
Pmin
(гПа)
dP
(гПа)
Po
(мм)
O2
(г/м3)
Тmin Tmax R s Состояние
почвы
06 23.05.17 270 (З) 20000 м    ясно 
+14.7 -0.7 35 +15  1014.5  0.7  747  286           
09 23.05.17 250 (З) 20000 м    6/6 1000 м 
[Sc]
+16.9 -1.2 29 +18  1013.8  -0.5  746  283           
12 23.05.17 320 (СЗ) 20000 м    8/6 1000 м средняя 
[Cu hum|Ac trans]
+18.9 +1.1 30 +20  1013.1  -0.5  746  281           
15 23.05.17 250 (З) 20000 м    8/8 1000 м 
[Cu Sc]
+19 +2.7 34 +20  1012.2  -0.9  745  280    +19.8       
18 23.05.17 250 (З) 20000 м    6/6 1000 м 
[Sc]
+14.1 +7.1 63 +15  1013.2  0.7  746  285           
21 23.05.17 тихо ()   4000 м  дымка  9/9 1000 м 
[Sc]
+12.3 +8 75 +12  1013.9  0.6  746  286           
00 24.05.17 тихо ()   4000 м  дымка  ясно 
+8.7 +6.5 86 +9  1014.2  746  290           
03 24.05.17 230 (ЮЗ) 4000 м  дымка  ясно 
+11.7 +7.4 75 +12  1014.6  0.5  747  287  +8         
06 24.05.17 230 (ЮЗ) 20000 м    3/0 верхняя 
[Ci fib]
+19.2 +9.4 53 +20  1014.3  0.3  746  279           
09 24.05.17 230 (ЮЗ) 20000 м    8/8 1000 м 
[Cu med, cong]
+23.1 +4.8 30 +23  1014  -0.1  747  277           
12 24.05.17 230 (ЮЗ) 20000 м    6/6 1000 м 
[Cu med, cong]
+24.7 +4 26 +25  1013.7  -0.3  747  275           
15 24.05.17 230 (ЮЗ) 20000 м    3/3 600 м верхняя 
[Cu Sc|Ci fib]
+24.6 +4.6 27 +25  1012.9  -0.7  746  275    +25.7       
18 24.05.17 230 (ЮЗ) 20000 м    4/4 600 м кучево-дожд. 
[Cb cap]
+19.5 +5.5 40 +21  1014  0.8  747  280           
21 24.05.17 250 (З) 10 км    ясно 
+13.9 +8.8 71 +14  1015.5  1.1  748  285           
00 25.05.17 270 (З) 4000 м  дымка  3/0 верхняя 
[Ci fib]
+12.1 +8.9 81 +12  1016.2  0.5  748  287           
03 25.05.17 230 (ЮЗ) 4000 м  дымка  8/8 600 м 
[Sc]
+14 +9.8 76 +16  1016.1  0.1  748  285  +10.2         
06 25.05.17 230 (ЮЗ) 20000 м    8/8 1000 м 
[Sc]
+18 +9.9 59 +20  1016.6  0.7  749  281           
09 25.05.17 180 (Ю) 20000 м    9/6 1000 м верхняя 
[Cu Sc|Ci]
+21 +9.4 47 +21  1015.9  -0.4  748  278           
12 25.05.17 230 (ЮЗ) 20000 м    6/6 1000 м 
[Cu hum]
+24.5 +4.5 27 +25  1014.6  -1.2  747  276           
15 25.05.17 230 (ЮЗ) 20000 м    6/6 1000 м 
[Cu med, cong]
+25 +4.8 27 +25  1013.1  -1.4  746  275    +25.4       
18 25.05.17 тихо ()   20000 м    ясно 
+18.4 +4.6 40 +18  1014.2  0.6  747  281           
21 25.05.17 тихо ()   20000 м    ясно 
+13.4 +5.8 60 +13  1014.9  0.4  747  286           
00 26.05.17 тихо ()   4000 м  дымка  ясно 
+11.8 +7.3 74 +12  1014.6  -0.4  747  287           
03 26.05.17 200 (Ю) 10 км    ясно 
+13.4 +8 70 +14  1013.9  -0.5  746  285  +10.3         
06 26.05.17 230 (ЮЗ) 20000 м    ясно 
+20.4 +7.6 44 +20  1013.4  746  279           
Время (UTC), дата Ветер
(°,м/с) 
Видим.   Явления Облачность Т
(°С)
Тd
(°С)
f(%) Тe
(°С)
Pmin
(гПа)
dP
(гПа)
Po
(мм)
O2
(г/м3)
Тmin Tmax R s Состояние
почвы

Для получения пояснительной информации подведите курсор к названию столбца.

ПОГОДА в Мичуринске - архив

Всё, что Вы хотите узнать о погоде в Мичуринске - удобно и подробно!

Выберите нужную дату (начиная с 1 января 2015* года) и нажмите кнопку "Найти".
Будут отображены архивные сводки погоды по пункту Мичуринск, начиная с указанной даты.


Отображать данные в формате CSV (для использования в таблицах Excel)


Внимание! Наш архив погоды предназначен исключительно для личного некоммерческого использования в познавательных целях. Если Вам необходимы официальные справки о состоянии погоды (для производственных, юридических, коммерческих и т.п. целей), обращайтесь в органы Росгидромета.

*Примечание: данная дата относится к архиву по метеостанциям СССР (Россия, СНГ, Балтия).
Архив по метеостанциям Зарубежной Европы и Азии (кроме Китая) хранится 10 дней, по другим регионам земного шара (Китай, Африка, Америка, Австралия, Океания) - 1 день.

Мичуринск - район местоположения метеостанции


Название, широта, долгота, высота метеостанции:
Мичуринск 52.9°ш. 40.5°д. 158 м над ур. моря [Российская Федерация]

Дополнительная информация

В oтличие oт бoльшинства пoгoдных сайтoв мы публикуем пoдрoбную метеoинфoрмацию в детальнoм прoфессиoнальнoм фoрмате.

Характеристики температуры и влажнoсти вoздуха измеряются на высoте 2 м в тени вдали oт зданий и деревьев.
Скoрoсть ветра измеряется на высoте 10 м (на урoвне рoста челoвека скoрoсть ветра ниже в 1.5-2 раза). Если метеoстанция нахoдится в гoрoде или в лесу, тo скoрoсть ветра занижена на 2-4 м/с пo сравнению с oткрытым местoм. Скoрoсть ветра над акватoриями крупных рек и oзёр, а также на вершинах хoлмoв на 2-5 м/с выше, чем в oбычных услoвиях.
Атмoсфернoе давление в разных тoчках местнoсти мoжет значительнo oтличаться oт давления на метеoстанции, в зависимoсти oт услoвий рельефа (при пoдъёме на 10 м давление пoнижается примернo на 1 мм рт.ст.).